Location: Ch�ze
(42.9000°N, 0.0333°W)
Time: 18:19:53
(UTC+00:00)

USA 229 DEB - Pass Details

Date: 24 January 2021
Orbit: 965 x 1247 km, 63.4° (Epoch: 06 March)

Event Time Altitude Azimuth Distance (km) Brightness Sun altitude
Rises 18:31:50 0° 325° (NW) 3,948 7.0 -16.3°
Reaches altitude 10° 18:34:32 10° 329° (NNW) 3,027 6.3 -16.8°
Maximum altitude 18:41:42 57° 48° (NE) 1,379 4.0 -18.1°
Enters shadow 18:47:27 18° 122° (ESE) 2,596 5.3 -19.1°
